Weather History for Hilo, HI

Change the Weather History Date:

Tuesday, January 10, 2012

  Actual Average Record
Temperature  
Mean Temperature 71 °F 72 °F  
Max Temperature 79 °F 79 °F 85 °F (1997)
Min Temperature 62 °F 64 °F 54 °F (1995)
Degree Days  
Heating Degree Days 0 0  
Month to date heating degree days 0 0  
Since 1 July heating degree days 0 0  
Cooling Degree Days 6 7  
Month to date cooling degree days 68 70  
Year to date cooling degree days 68 70  
Growing Degree Days 20 (Base 50)    
Moisture  
Dew Point 62 °F    
Average Humidity 74    
Maximum Humidity 87    
Minimum Humidity 60    
Precipitation  
Precipitation 0.15 in 0.26 in 2.26 in (1989)
Month to date precipitation 0.76 2.79  
Year to date precipitation 0.76 2.79  
Snow  
Snow 0.00 in - - ()
Month to date snowfall 0.0  
Since 1 July snowfall 0.0  
Snow Depth 0.00 in    
Sea Level Pressure  
Sea Level Pressure 30.06 in    
Wind  
Wind Speed 5 mph (SW)    
Max Wind Speed 10 mph    
Max Gust Speed 14 mph    
Visibility 10 miles    
Events Rain    
T = Trace of Precipitation, MM = Missing Value Source: NWS Daily Summary

Daily Weather History Graph

Daily Weather History Graph

Search for Another Location

Airport:

Trip Planner

Search our weather history database for the weather conditions in past years. The results will help you decide how hot, cold, wet, or windy it might be!

Date:

Astronomy

Jan. 10, 2012 Rise Set
Actual Time 6:57 AM HST 5:58 PM HST
Civil Twilight 6:33 AM HST 6:22 PM HST
Nautical Twilight 6:06 AM HST 6:49 PM HST
Astronomical Twilight 5:39 AM HST 7:16 PM HST
Moon 7:43 PM HST (1/10) 7:57 AM HST (1/10)
Length of Visible Light 11h 48m
Length of Day
11h 01m
Full, 97% of the Moon is Illuminated
Jan 10
Full
Jan 15
Last Quarter
Jan 22
New
Jan 30
First Quarter
Feb 7
Full

Hourly Weather History & Observations

Time (HST) Temp. Dew Point Humidity Pressure Visibility Wind Dir Wind Speed Gust Speed Precip Events Conditions
12:53 AM 66.9 °F 63.0 °F 87% 30.10 in 10.0 mi SSW 5.8 mph - N/A   Mostly Cloudy
1:53 AM 64.9 °F 61.0 °F 87% 30.09 in 10.0 mi SW 5.8 mph - N/A   Scattered Clouds
2:53 AM 64.0 °F 60.1 °F 87% 30.06 in 10.0 mi SW 5.8 mph - N/A   Partly Cloudy
3:53 AM 63.0 °F 57.0 °F 81% 30.05 in 10.0 mi SW 8.1 mph - N/A   Partly Cloudy
4:53 AM 62.1 °F 55.0 °F 78% 30.05 in 10.0 mi WSW 8.1 mph - N/A   Partly Cloudy
5:53 AM 62.1 °F 55.0 °F 78% 30.06 in 10.0 mi SW 5.8 mph - N/A   Scattered Clouds
6:53 AM 62.1 °F 54.0 °F 75% 30.07 in 10.0 mi SW 5.8 mph - N/A   Scattered Clouds
7:53 AM 64.9 °F 55.0 °F 70% 30.08 in 10.0 mi WSW 6.9 mph - N/A   Scattered Clouds
8:53 AM 72.0 °F 59.0 °F 64% 30.09 in 10.0 mi WSW 4.6 mph - N/A   Scattered Clouds
9:53 AM 75.0 °F 61.0 °F 62% 30.09 in 10.0 mi Calm Calm - N/A   Mostly Cloudy
10:53 AM 72.0 °F 66.9 °F 84% 30.09 in 10.0 mi Variable 3.5 mph - 0.01 in Rain Light Rain
11:53 AM 73.9 °F 64.0 °F 71% 30.06 in 10.0 mi North 5.8 mph - 0.00 in   Mostly Cloudy
12:53 PM 77.0 °F 63.0 °F 62% 30.03 in 10.0 mi Variable 3.5 mph - N/A   Mostly Cloudy
1:53 PM 77.0 °F 64.9 °F 66% 30.01 in 10.0 mi NE 4.6 mph - N/A   Mostly Cloudy
2:53 PM 79.0 °F 64.9 °F 62% 30.00 in 10.0 mi NE 6.9 mph - N/A   Scattered Clouds
3:53 PM 77.0 °F 64.0 °F 64% 30.01 in 10.0 mi ENE 5.8 mph - N/A   Partly Cloudy
4:53 PM 73.9 °F 64.0 °F 71% 30.01 in 10.0 mi ENE 5.8 mph - N/A   Partly Cloudy
5:53 PM 73.0 °F 64.9 °F 76% 30.03 in 10.0 mi East 3.5 mph - N/A   Mostly Cloudy
6:53 PM 69.1 °F 64.9 °F 87% 30.04 in 10.0 mi Calm Calm - 0.00 in   Scattered Clouds
7:11 PM 69.8 °F 64.4 °F 83% 30.05 in 10.0 mi SW 3.5 mph - N/A   Mostly Cloudy
7:18 PM 69.8 °F 64.4 °F 83% 30.06 in 10.0 mi Calm Calm - N/A   Scattered Clouds
7:53 PM 69.1 °F 64.0 °F 84% 30.06 in 10.0 mi WSW 4.6 mph - N/A   Clear
8:53 PM 68.0 °F 63.0 °F 84% 30.08 in 10.0 mi WSW 5.8 mph - N/A   Scattered Clouds
9:53 PM 66.9 °F 63.0 °F 87% 30.09 in 10.0 mi SW 5.8 mph - 0.01 in Rain Light Rain
10:04 PM 66.2 °F 62.6 °F 88% 30.09 in 9.0 mi South 5.8 mph - 0.00 in Rain Light Rain
10:21 PM 66.2 °F 62.6 °F 88% 30.09 in 10.0 mi WSW 4.6 mph - 0.01 in   Overcast
10:30 PM 66.2 °F 62.6 °F 88% 30.09 in 6.0 mi Calm Calm - 0.01 in Rain Rain
10:37 PM 66.2 °F 62.6 °F 88% 30.08 in 3.0 mi West 5.8 mph - 0.03 in Rain Heavy Rain
10:53 PM 66.0 °F 63.0 °F 90% 30.07 in 10.0 mi WSW 6.9 mph - 0.06 in   Overcast
11:34 PM 64.4 °F 62.6 °F 94% 30.08 in 10.0 mi SW 4.6 mph - 0.07 in Rain Light Rain
11:53 PM 64.0 °F 61.0 °F 90% 30.07 in 10.0 mi SW 5.8 mph - 0.07 in   Overcast